Location: PSU-Greenbush Astrophysical Observatory
(37.5140°N, 94.9880°W)
Time: 13:46:04
(UTC-06:00)

CUTE 1.7 + AOD 2 - Visible Passes

Search period start: 27 February 2021 00:00
Search period end: 09 March 2021 00:00
Orbit: 593 x 611 km, 97.6° (Epoch: 27 February)

Date Brightness Start Highest point End Pass type
(mag) Time Alt. Az. Time Alt. Az. Time Alt. Az.
27 Feb ? 05:01:50 10° N 05:06:06 76° WNW 05:06:51 58° SW visible
28 Feb ? 03:40:35 10° ENE 03:41:45 11° E 03:42:09 11° E visible
28 Feb ? 05:13:39 10° N 05:17:49 54° WNW 05:18:58 41° SW visible
01 Mar ? 03:51:05 10° NE 03:53:37 15° E 03:54:16 15° ESE visible
01 Mar ? 05:25:33 10° N 05:29:32 39° WNW 05:31:05 28° WSW visible
02 Mar ? 04:02:13 10° NE 04:05:28 21° E 04:06:23 19° ESE visible
02 Mar ? 05:37:31 10° N 05:41:13 29° WNW 05:43:12 20° WSW visible
03 Mar ? 04:13:35 10° NE 04:17:17 28° E 04:18:30 24° SE visible
03 Mar ? 05:49:36 10° NNW 05:52:53 22° WNW 05:55:18 14° WSW visible
04 Mar ? 04:25:05 10° NNE 04:29:05 38° E 04:30:37 28° SE visible
04 Mar ? 06:01:50 10° NNW 06:04:32 17° WNW 06:07:13 10° WSW visible
05 Mar ? 04:36:40 10° NNE 04:40:52 54° E 04:42:43 30° SSE visible
05 Mar ? 06:14:24 10° NW 06:16:09 12° WNW 06:17:54 10° W visible
06 Mar ? 04:48:21 10° NNE 04:52:38 76° ESE 04:54:49 28° S visible
07 Mar ? 05:00:06 10° N 05:04:23 78° WNW 05:06:55 24° SSW visible
08 Mar ? 03:38:59 10° ENE 03:40:01 11° E 03:41:04 10° ESE visible
08 Mar ? 05:11:54 10° N 05:16:06 56° WNW 05:19:01 19° SSW visible
